Location: Düngen
(52.0952°N, 10.0219°E)
Time: 19:00:27
(UTC+00:00)

CZ-4B R/B - Pass Details

Date: 11 March 2026
Orbit: 699 x 798 km, 98.9° (Epoch: 20 April)

Event Time Altitude Azimuth Distance (km) Brightness Sun altitude
Exits shadow 20:30:18 69° 346° (NNW) 847 3.7 -28.8°
Drops below altitude 10° 20:34:51 10° 344° (NNW) 2,347 6.6 -29.4°
Sets 20:37:09 0° 345° (NNW) 3,267 7.5 -29.7°
